AirNav   Pilot Hours Calculator
 
 929 users online  

8Y4 Surfside Seaplane Base
Lino Lakes, Minnesota, USA

GOING TO LINO LAKES?


FAA INFORMATION EFFECTIVE 27 FEBRUARY 2020

Location

FAA Identifier: 8Y4
Lat/Long: 45-08-59.8780N 093-07-00.8000W
45-08.997967N 093-07.013333W
45.1499661,-93.1168889
(estimated)
Elevation: 880 ft. / 268 m (estimated)
Variation: 03E (1985)
From city: 2 miles S of LINO LAKES, MN
Time zone: UTC -6 (UTC -5 during Daylight Saving Time)
Zip code: 55014

Seaplane Base Operations

Seaplane Base use: Open to the public
Activation date: 06/1947
Control tower: no
ARTCC: MINNEAPOLIS CENTER
FSS: PRINCETON FLIGHT SERVICE STATION
NOTAMs facility: PNM (NOTAM-D service available)
Attendance: MAY-OCT DAWN-DUSK, NOV-APR/UNATNDD/
Wind indicator: yes
Segmented circle: no

Seaplane Base Communications

CTAF: 122.9
WX AWOS-3 at ANE (4 nm W): 120.625 (763-780-9025)
WX ASOS at MIC (11 nm SW): PHONE 763-531-2343
WX ASOS at STP (13 nm S): 118.35 (651-312-8888)
WX AWOS-3 at 21D (14 nm SE): 120.075 (651-779-5949)
WX ASOS at MSP (17 nm S): 135.35 (612-713-4174)
WX AWOS-3 at SGS (18 nm S): 119.425 (651-457-8120)

Nearby radio navigation aids

VOR radial/distance  VOR name  Freq  Var
GEPr083/10.8GOPHER VORTAC117.3006E
MSPr016/16.0MINNEAPOLIS VOR/DME115.3002E
FCMr034/23.9FLYING CLOUD VOR/DME117.7001E
FGTr359/31.3FARMINGTON VORTAC115.7006E

 
NDB name  Hdg/Dist  Freq  Var  ID
HOPEY333/18.240003EPPI .--. .--. ..
CAMBRIDGE165/25.235001ECBG -.-. -... --.
PRINCETON137/32.436803EPNM .--. -. --
RUSH CITY190/33.428202EROS .-. --- ...

Seaplane Base Services

Fuel available: 100LL
SERVICE AFTER HOURS 651-792-4703
Parking: tiedowns
Airframe service: MAJOR
Powerplant service: MAJOR

Runway Information

Runway NE/SW

Dimensions: 6500 x 1000 ft. / 1981 x 305 m
Surface: water
RUNWAY NE  RUNWAY SW
Traffic pattern: leftleft

Runway N/S

Dimensions: 5500 x 1000 ft. / 1676 x 305 m
Surface: water
RUNWAY N  RUNWAY S
Traffic pattern: leftleft

Seaplane Base Ownership and Management from official FAA records

Ownership: Privately-owned
Owner: SURFSIDE SEAPLANE BASE INC
6980 LAKE DR
LINO LAKES, MN 55014
Phone 651-780-4179
Manager: BRUCE R. HANSON
6980 LAKE DR
LINO LAKES, MN 55014
Phone 651-780-4179

Seaplane Base Operational Statistics

Aircraft based on the field: 40
Single engine airplanes: 40
    
Aircraft operations: avg 79/week *
76% local general aviation
24% transient general aviation
* for 12-month period ending 12 October 2018

Additional Remarks

PLAN APCH OVER MARSHAN OR BALDWIN LAKES.
500' TWR 2 MI EAST RIGHT OF DEP PATH.
SOUTH DEPS MAKE LEFT TURNOUT.
FOR CD CTC MINNEAPOLIS ARTCC AT 651-463-5588.

Instrument Procedures

There are no published instrument procedures at 8Y4.

Some nearby airports with instrument procedures:

KANE - Anoka County-Blaine Airport (Janes Field) (4 nm W)
KMIC - Crystal Airport (11 nm SW)
KSTP - St Paul Downtown Airport Holman Field (13 nm S)
21D - Lake Elmo Airport (14 nm SE)
KMSP - Minneapolis-St Paul International/Wold-Chamberlain Airport (17 nm S)
KSGS - South St Paul Municipal Airport-Richard E Fleming Field (18 nm S)
 
Loc | Ops | Rwys | IFR | FBO | Links
Com | Nav | Svcs | Stats | Notes
Area around 8Y4 (Surfside Seaplane Base)
 
Road maps at: MapQuest Bing Google
 
Aerial photo
WARNING: Photo may not be current or correct
Aerial photo of 8Y4 (Surfside Seaplane Base)
Photo by R. Johnson

Do you have a better or more recent aerial photo of Surfside Seaplane Base that you would like to share? If so, please send us your photo.

 
Sectional chart

 
Airport distance calculator
Flying to Surfside Seaplane Base? Find the distance to fly.

From to 8Y4

Sunrise and sunset
Times for 27-Feb-2020
 Local
(UTC-6)
 Zulu
(UTC)
Morning civil twilight06:2512:25
Sunrise06:5512:55
Sunset17:5623:56
Evening civil twilight18:2500:25

Current date and time
Zulu (UTC)  28-Feb-2020 04:09:54
Local (UTC-6)  27-Feb-2020 22:09:54
 
METAR
KANE 
4nm W 
280355Z AUTO 00000KT 10SM OVC120 M06/M14 A3008 RMK AO2
KMIC 
11nm SW 
280353Z AUTO 27004KT 10SM OVC110 M07/M13 A3008 RMK AO2 SLP201 T10671128
KSTP 
13nm S 
280353Z AUTO 34004KT 10SM OVC120 M06/M14 A3011 RMK AO2 SLP206 T10611139
K21D 
14nm SE 
280355Z AUTO 00000KT 10SM OVC120 A3009 RMK AO2 TSNO
KMSP 
17nm S 
280353Z 29005KT 10SM FEW060 OVC110 M06/M13 A3010 RMK AO2 SLP206 T10611128
KSGS 
18nm S 
280356Z AUTO 28003KT 10SM OVC120 M06/M13 A3010 RMK AO2 T10591128
TAF
KMSP 
17nm S 
272033Z 2721/2824 32008KT P6SM FEW035 FEW100 FM280100 28005KT P6SM OVC050 FM280500 30003KT 5SM -SN OVC035 FM281300 34003KT P6SM SCT022 BKN035 FM281600 24006KT P6SM SCT040
NOTAMs
Click for the latest NOTAMs
NOTAMs are issued by the DoD/FAA and will open in a separate window not controlled by AirNav.

 

 
 

FBO, Fuel Providers, and Aircraft Ground Support

  
 Business Name 
 
 Contact 
 
 Services / Description 
 
Fuel Prices
 
Comments
  
Surfside Seaplane Training, LLC 651-270-7602
612-309-3189
[email]
Aviation fuel, Flight training, Aerial tours / aerial sightseeing

More info about Surfside Seaplane Training, LLC
100LL
AS $4.50 
 Updated 05-Sep-2019
 
   write
AS=Assisted/Self Service
Update Fuel Prices
 

Aviation Businesses, Services, and Facilities

  
 Business Name 
 
 Contact 
 
 Services / Description 
 
Distance
 
Comments
  
Seaplane Services, Inc 651-792-4703
toll-free 1-866-879-0854
[web site]
[email]
Aircraft ground handling, Hangars, Flight training, Aircraft maintenance, Avionics sales and service, Aircraft modifications, Aircraft painting, Aircraft interiors, ...

More info about Seaplane Services, Inc
on airport  
   write
 

Would you like to see your business listed on this page?

 If your business provides an interesting product or service to pilots, flight crews, aircraft, or users of the Surfside Seaplane Base, you should consider listing it here.  To start the listing process, click on the button below
 
Add a business
 

Other Pages about Surfside Seaplane Base

Update a link
 
Copyright © AirNav, LLC. All rights reserved. Privacy Policy  Contact